DW5775 Weather Reports


Display with metric or nautical units.
time (UTC)temp
F
wind
direction
speed
MPH
gust
MPH
rain 1hr
in
rain 24hr
in
rain mn
in
humidity
%
barometer
mb
20260902211553 92 48 0.0 4.0 0.00 0.00 0.00 55 1009.6
20260902210045 92 51 1.0 4.0 0.00 0.00 0.00 54 1009.4
20260902204603 93 117 0.0 3.0 0.00 0.00 0.00 52 1009.7
20260902203043 94 61 1.0 6.0 0.00 0.00 0.00 48 1009.7
20260902201543 94 346 2.0 7.0 0.00 0.00 0.00 50 1010.0
20260902200040 94 120 2.0 8.0 0.00 0.00 0.00 49 1010.0
20260902194552 96 307 0.0 5.0 0.00 0.00 0.00 51 1010.2
20260902193040 95 229 0.0 2.0 0.00 0.00 0.00 47 1010.5
20260902191539 95 335 1.0 7.0 0.00 0.00 0.00 47 1010.5
20260902190030 95 35 0.0 6.0 0.00 0.00 0.00 50 1010.7
20260902184528 94 77 1.0 7.0 0.00 0.00 0.00 50 1010.6
20260902183030 94 104 1.0 7.0 0.00 0.00 0.00 49 1010.7
20260902181523 94 77 0.0 4.0 0.00 0.00 0.00 52 1010.9
20260902180021 92 281 0.0 5.0 0.00 0.00 0.00 57 1011.3
20260902174519 93 5 0.0 6.0 0.00 0.00 0.00 55 1011.5
20260902173015 92 70 0.0 3.0 0.00 0.00 0.00 56 1011.7
20260902171512 91 149 0.0 4.0 0.00 0.00 0.00 60 1012.0
20260902170009 90 21 0.0 4.0 0.00 0.00 0.00 60 1012.3
20260902164506 90 74 0.0 1.0 0.00 0.00 0.00 65 1012.1
20260902163003 90 108 0.0 2.0 0.00 0.00 0.00 62 1012.1
20260902161502 89 98 2.0 4.0 0.00 0.00 0.00 61 1012.2
20260902160110 89 161 1.0 3.0 0.00 0.00 0.00 62 1012.3
20260902154559 88 16 0.0 3.0 0.00 0.00 0.00 64 1012.2
20260902153053 87 72 0.0 3.0 0.00 0.00 0.00 68 1012.3
20260902151550 86 135 0.0 3.0 0.00 0.00 0.00 70 1012.3
20260902150046 85 197 0.0 3.0 0.00 0.00 0.00 73 1012.3
20260902144544 84 15 0.0 1.0 0.00 0.00 0.00 76 1012.3
20260902143043 84 325 0.0 4.0 0.00 0.00 0.00 76 1012.3
20260902141540 84 63 0.0 2.0 0.00 0.00 0.00 78 1012.2
20260902140039 83 72 0.0 1.0 0.00 0.00 0.00 81 1012.1
20260902134534 82 17 0.0 4.0 0.00 0.00 0.00 85 1012.2
20260902133029 81 39 0.0 1.0 0.00 0.00 0.00 86 1012.5
20260902131525 80 36 0.0 1.0 0.00 0.00 0.00 89 1012.4
20260902130030 79 146 0.0 2.0 0.00 0.00 0.00 92 1012.4
20260902124518 77 212 0.0 0.0 0.00 0.00 0.00 96 1012.3
20260902123026 75 212 0.0 0.0 0.00 0.00 0.00 96 1012.3
20260902121511 74 212 0.0 0.0 0.00 0.00 0.00 96 1012.2
20260902120011 74 212 0.0 0.0 0.00 0.00 0.00 96 1012.4
20260902114518 73 212 0.0 0.0 0.00 0.00 0.00 96 1012.5
20260902113010 73 212 0.0 0.0 0.00 0.00 0.00 96 1012.4
20260902111509 72 212 0.0 0.0 0.00 0.00 0.00 96 1012.3
20260902110009 72 212 0.0 0.0 0.00 0.00 0.00 96 1012.5
20260902104508 72 212 0.0 0.0 0.00 0.00 0.00 96 1012.4
20260902103008 72 212 0.0 0.0 0.00 0.00 0.00 96 1012.3
20260902101509 72 212 0.0 0.0 0.00 0.00 0.00 96 1012.3
20260902100007 72 214 0.0 0.0 0.00 0.00 0.00 96 1012.2
20260902094505 72 214 0.0 0.0 0.00 0.00 0.00 96 1012.1
20260902093007 72 214 0.0 0.0 0.00 0.00 0.00 96 1012.2
20260902091503 72 214 0.0 0.0 0.00 0.00 0.00 96 1012.2
20260902090002 72 114 0.0 0.0 0.00 0.00 0.00 95 1012.0
20260902084502 72 114 0.0 0.0 0.00 0.00 0.00 95 1012.0
20260902083100 72 115 0.0 0.0 0.00 0.00 0.00 95 1011.9
20260902081603 73 114 0.0 0.0 0.00 0.00 0.00 95 1012.0
20260902080059 73 114 0.0 0.0 0.00 0.00 0.00 95 1012.0
20260902074559 72 114 0.0 0.0 0.00 0.00 0.00 95 1011.8
20260902073056 73 114 0.0 0.0 0.00 0.00 0.00 95 1011.9
20260902071555 73 114 0.0 0.0 0.00 0.00 0.00 95 1011.9
20260902070054 73 115 0.0 0.0 0.00 0.00 0.00 94 1011.9
20260902064553 73 114 0.0 0.0 0.00 0.00 0.00 94 1011.8
20260902063105 73 114 0.0 0.0 0.00 0.00 0.00 94 1011.9
20260902061548 73 115 0.0 0.0 0.00 0.00 0.00 94 1012.2
20260902060054 73 114 0.0 0.0 0.00 0.00 0.00 94 1012.3
20260902054544 74 114 0.0 0.0 0.00 0.00 0.00 93 1012.5
20260902053044 74 114 0.0 0.0 0.00 0.00 0.00 93 1012.6
20260902051542 74 115 0.0 0.0 0.00 0.00 0.00 93 1012.6
20260902050042 74 114 0.0 0.0 0.00 0.00 0.00 93 1012.6
20260902044542 74 115 0.0 0.0 0.00 0.00 0.00 93 1012.5
20260902043048 74 114 0.0 0.0 0.00 0.00 0.00 93 1012.6
20260902041542 74 114 0.0 0.0 0.00 0.00 0.00 93 1012.5
20260902040036 74 114 0.0 0.0 0.00 0.00 0.00 92 1012.5
20260902034536 75 114 0.0 0.0 0.00 0.00 0.00 91 1012.3
20260902033039 75 114 0.0 0.0 0.00 0.00 0.00 91 1012.3
20260902031534 75 114 0.0 0.0 0.00 0.00 0.00 90 1012.2
20260902030039 76 114 0.0 0.0 0.00 0.00 0.00 90 1012.2
20260902024533 76 114 0.0 0.0 0.00 0.00 0.00 89 1012.0
20260902023042 76 114 0.0 0.0 0.00 0.00 0.00 88 1012.0
20260902021542 77 114 0.0 0.0 0.00 0.00 0.00 86 1012.0
20260902020035 78 115 0.0 0.0 0.00 0.00 0.00 86 1012.1
20260902014532 78 114 0.0 0.0 0.00 0.00 0.00 85 1012.1
20260902013032 79 114 0.0 0.0 0.00 0.00 0.00 84 1012.2
20260902011530 79 114 0.0 0.0 0.00 0.00 0.00 83 1012.2
20260902010030 80 114 0.0 0.0 0.00 0.00 0.00 81 1011.9
20260902004530 81 114 0.0 0.0 0.00 0.00 0.00 80 1011.8
20260902003030 81 114 0.0 1.0 0.00 0.00 0.00 79 1011.7
20260902001529 82 360 0.0 1.0 0.00 0.00 0.00 78 1011.7
20260902000029 83 360 0.0 1.0 0.00 0.00 0.00 77 1011.6
20260901234528 84 27 0.0 3.0 0.00 0.00 0.00 77 1011.7
20260901233028 84 25 0.0 1.0 0.00 0.00 0.00 77 1011.5
20260901231527 85 155 0.0 3.0 0.00 0.00 0.00 78 1011.5
20260901230034 86 24 0.0 1.0 0.00 0.00 0.00 73 1011.6
20260901224528 87 63 0.0 1.0 0.00 0.01 0.00 71 1011.5
20260901223026 87 271 0.0 2.0 0.00 0.01 0.00 70 1011.4
20260901221532 87 92 0.0 1.0 0.00 0.01 0.00 72 1011.4
20260901220051 88 176 0.0 1.0 0.00 0.01 0.00 71 1011.3
20260901214524 88 134 0.0 1.0 0.00 0.01 0.00 70 1011.2
20260901213056 89 174 0.0 3.0 0.00 0.01 0.00 68 1011.2